Location: Moydans
(44.3997°N, 5.5038°E)
Time: 05:40:37
(UTC+02:00)

ISS - Visible Passes

Search period start: 18 September 2021 00:00
Search period end: 28 September 2021 00:00
Orbit: 419 x 423 km, 51.6° (Epoch: 17 September)

Date Brightness Start Highest point End Pass type
(mag) Time Alt. Az. Time Alt. Az. Time Alt. Az.
18 Sep -3.8 20:50:54 10° SW 20:54:15 71° SE 20:56:29 19° ENE visible
18 Sep -0.9 22:28:18 10° WNW 22:29:30 18° WNW 22:29:30 18° WNW visible
19 Sep -3.3 20:04:12 10° SW 20:07:25 43° SE 20:10:39 10° ENE visible
19 Sep -2.5 21:41:09 10° W 21:44:19 37° NNW 21:44:44 35° N visible
20 Sep -3.0 20:54:03 10° WSW 20:57:21 49° NNW 20:59:50 16° NE visible
20 Sep -0.6 22:31:55 10° WNW 22:32:51 15° NW 22:32:51 15° NW visible
21 Sep -3.5 20:07:02 10° WSW 20:10:24 72° NNW 20:13:46 10° ENE visible
21 Sep -1.9 21:44:46 10° WNW 21:47:39 25° N 21:47:51 25° N visible
22 Sep -2.1 20:57:35 10° WNW 21:00:35 29° NNW 21:02:47 15° NE visible
22 Sep -0.4 22:35:19 10° NW 22:35:46 13° NW 22:35:46 13° NW visible
23 Sep -2.4 20:10:25 10° W 20:13:33 36° NNW 20:16:43 10° NE visible
23 Sep -1.6 21:48:16 10° NW 21:50:39 22° N 21:50:39 22° N visible
24 Sep -1.8 21:01:10 10° WNW 21:03:57 23° N 21:05:29 17° NE visible
24 Sep -0.2 22:38:24 10° NW 22:38:29 10° NW 22:38:29 10° NW visible
25 Sep -1.9 20:13:59 10° WNW 20:16:51 25° N 20:19:43 10° NE visible
25 Sep -1.5 21:51:29 10° NW 21:53:18 22° NNW 21:53:18 22° NNW visible
26 Sep -2.0 21:04:29 10° NW 21:07:19 24° N 21:08:06 22° NNE visible
27 Sep -1.9 20:17:26 10° NW 20:20:13 23° N 20:22:55 10° NE visible
27 Sep -1.3 21:54:25 10° NW 21:55:54 22° NW 21:55:54 22° NW visible
